Flag for Germany Weather past 2 weeks in Erlangen, Bavaria, Germany

Now
61 °F

Partly sunny.


Feels Like: 61 °F
Forecast: 53 / 73 °F
Wind: 1 mph from North

Location: Nuernberg

Current Time: Sep 2, 2014 at 8:31:45 PM

Latest Report: Sep 2, 2014 at 7:50 PM


Visibility: N/A

Pressure: 30.15 "Hg

Humidity: 88%

Dew point: 57 °F

Location of ErlangenLocation

Historic Weather in Erlangen — Graph

°F

Erlangen temperature yesterday

Maximum temperature yesterday: 59 °F (at 12:50 PM)
Minimum temperature yesterday: 52 °F (at 12:20 AM)
Average temperature yesterday: 55 °F

Past Weeks' High & Low Weather Summary

 TemperatureHumidityPressure
High73 °F (Aug 28, 4:20 PM)100% (Aug 19, 4:50 AM)30.15 "Hg (Aug 19, 4:50 AM)
Low41 °F (Aug 25, 6:20 AM)35% (Aug 22, 2:50 PM)29.68 "Hg (Aug 26, 6:50 AM)
Average58 °F79%30.00 "Hg
* Reported Aug 18 7:20 PM — Sep 2 7:20 PM, Erlangen, Weather by CustomWeather, © 2014

Note: Actual official high and low records may vary slightly from our data, if they occured in-between our weather recording intervals... More about our weather records

Advertising

Erlangen weather history for previous 24 hours

 ConditionsComfort  
Time TempWeatherWind HumidityBarometerVisibility
7:20 PM
Sep 2
61 °FPartly sunny.2 mph88%30.12 "HgN/A
6:50 PM61 °FBroken clouds.3 mph88%30.12 "HgN/A
6:20 PM61 °FBroken clouds.3 mph88%30.12 "HgN/A
5:50 PM63 °FScattered showers. Broken clouds.3 mph83%30.12 "HgN/A
5:20 PM63 °FBroken clouds.3 mph77%30.12 "HgN/A
4:50 PM63 °FBroken clouds.3 mph77%30.12 "HgN/A
4:20 PM63 °FBroken clouds.5 mph77%30.12 "HgN/A
3:20 PM63 °FScattered clouds.6 mph77%30.12 "HgN/A
2:50 PM63 °FScattered clouds.5 mph77%30.12 "HgN/A
2:20 PM61 °FBroken clouds.7 mph83%30.12 "HgN/A
1:50 PM61 °FBroken clouds.5 mph83%30.12 "HgN/A
1:20 PM61 °FBroken clouds.3 mph83%30.12 "HgN/A
12:50 PM59 °FBroken clouds.3 mph88%30.12 "HgN/A
12:20 PM59 °FBroken clouds.2 mph88%30.12 "HgN/A
11:50 AM59 °FBroken clouds.5 mph88%30.12 "HgN/A
11:20 AM57 °FCool.5 mph94%30.12 "HgN/A
10:50 AM57 °FBroken clouds.3 mph94%30.12 "Hg6 mi
10:20 AM55 °FSprinkles. Broken clouds.3 mph94%30.12 "Hg4 mi
9:50 AM57 °FPartly sunny.3 mph88%30.12 "Hg6 mi
9:20 AM57 °FPartly sunny.2 mph88%30.12 "HgN/A
8:50 AM55 °FBroken clouds.1 mph94%30.12 "Hg6 mi
8:20 AM55 °FBroken clouds.1 mph94%30.12 "HgN/A
7:50 AM54 °FPartly sunny.2 mph100%30.12 "Hg6 mi
7:20 AM52 °FFog.2 mph100%30.12 "HgN/A
6:50 AM52 °FFog.1 mph100%30.12 "HgN/A
6:20 AM52 °FClear.1 mph100%30.12 "Hg6 mi
5:50 AM54 °FClear.2 mph94%30.12 "Hg10 mi
5:20 AM54 °FClear.1 mph94%30.12 "Hg10 mi
4:50 AM54 °FClear.1 mph94%30.12 "Hg10 mi
4:20 AM54 °FPassing clouds.1 mph100%30.12 "HgN/A
3:50 AM54 °FPassing clouds.2 mph100%30.12 "HgN/A
3:20 AM54 °FClear.2 mph100%30.12 "Hg10 mi
2:50 AM55 °FClear.No wind94%30.12 "Hg10 mi
2:20 AM54 °FPassing clouds.2 mph100%30.12 "HgN/A
1:50 AM54 °FClear.1 mph100%30.12 "Hg10 mi
1:20 AM55 °FClear.No wind94%30.12 "Hg10 mi
12:50 AM54 °FCool.2 mph100%30.12 "HgN/A
12:20 AM55 °FClear.1 mph94%30.12 "Hg10 mi
11:50 PM
Sep 1
55 °FClear.1 mph94%30.12 "Hg10 mi
11:20 PM54 °FPassing clouds.2 mph100%30.15 "HgN/A
10:20 PM55 °FClear.1 mph88%30.15 "Hg10 mi
9:50 PM54 °FClear.2 mph94%30.15 "Hg10 mi
9:20 PM55 °FClear.1 mph88%30.15 "Hg10 mi
8:50 PM55 °FSunny.1 mph88%30.15 "Hg10 mi
8:20 PM57 °FSunny.No wind82%30.12 "Hg10 mi
Weather by CustomWeather, © 2014

See weather overviewHow to use our weather pages